Home > Weather > Narva > Past weeks

Flag for Estonia Weather for the Past 2 Weeks in Narva, Estonia

Now
60 °F

Sunny.


Feels Like: 60 °F
Forecast: 41 / 60 °F
Wind: 2 mph from East

Location: Narva

Current Time: May 3, 2016 at 11:54:21 AM

Latest Report: May 3, 2016 at 10:00 AM


Visibility: 13 mi

Pressure: 30.16 "Hg

Humidity: 46%

Dew Point: 38 °F

Location of NarvaLocation

Historic Weather in Narva — Graph

°F

Narva Temperature Yesterday

Maximum temperature yesterday: 60 °F (at 7:00 PM)
Minimum temperature yesterday: 37 °F (at 4:00 AM)
Average temperature yesterday: 52 °F

High & Low Weather Summary for the Past Weeks

 TemperatureHumidityPressure
High62 °F (Apr 28, 6:00 PM)99% (May 3, 4:00 AM)30.36 "Hg (May 3, 4:00 AM)
Low29 °F (Apr 21, 10:00 PM)42% (May 2, 7:00 PM)29.53 "Hg (Apr 26, 11:00 PM)
Average45 °F78%29.93 "Hg
* Reported Apr 18 2:00 PM — May 3 10:00 AM, Narva, Weather by CustomWeather, © 2016

Note: Actual official high and low records may vary slightly from our data, if they occured in-between our weather recording intervals... More about our weather records

Advertising

Narva Weather History for the Previous 24 Hours

Scroll right to see more
 ConditionsComfort  
Time TempWeatherWind HumidityBarometerVisibility
10:00 AM
Tue, May 3
60 °FSunny.2 mph46%30.16 "Hg12 mi
9:00 AM56 °FSunny.1 mph59%30.17 "Hg12 mi
7:00 AM47 °FSunny.1 mph85%30.17 "Hg11 mi
6:00 AM38 °FSunny.1 mph97%30.17 "Hg7 mi
5:00 AM37 °FClear.No wind98%30.18 "Hg11 mi
4:00 AM36 °FFog.No wind99%30.18 "Hg4 mi
3:00 AM37 °FFog.No wind97%30.19 "Hg5 mi
2:00 AM41 °FClear.1 mph86%30.19 "Hg12 mi
1:00 AM40 °FPassing clouds.1 mph95%30.20 "Hg12 mi
12:00 AM41 °FPassing clouds.1 mph90%30.20 "Hg12 mi
11:00 PM
Mon, May 2
44 °FPassing clouds.No wind84%30.20 "Hg12 mi
10:00 PM47 °FClear.No wind74%30.20 "Hg12 mi
9:00 PM55 °FSunny.2 mph53%30.21 "Hg12 mi
8:00 PM58 °FPartly sunny.1 mph50%30.21 "Hg12 mi
7:00 PM60 °FOvercast.2 mph42%30.22 "Hg12 mi
6:00 PM58 °FScattered clouds.2 mph49%30.24 "Hg12 mi
5:00 PM58 °FOvercast.2 mph50%30.25 "Hg12 mi
4:00 PM56 °FOvercast.2 mph56%30.27 "Hg12 mi
3:00 PM57 °FOvercast.2 mph53%30.28 "Hg12 mi
2:00 PM59 °FOvercast.1 mph47%30.29 "Hg12 mi
1:00 PM59 °FOvercast.1 mph48%30.30 "Hg12 mi
12:00 PM58 °FOvercast.2 mph50%30.30 "Hg12 mi
11:00 AM58 °FOvercast.2 mph59%30.30 "Hg12 mi
Weather by CustomWeather, © 2016

See weather overviewHow to use our weather pages